Flag Weather past 2 weeks in Liberec, Czech Republic

Now
37 °F

Fog.


Feels Like: 33 °F
Forecast: 34 / 39 °F
Wind: 5 mph from Southeast

Location: Liberec

Current Time: Nov 23, 2014 at 4:57:26 AM

Latest Report: Nov 23, 2014 at 4:00 AM


Visibility: 6 mi

Pressure: 30.34 "Hg

Humidity: 85%

Dew point: 33 °F

Location of LiberecLocation

Historic Weather in Liberec — Graph

°F

Liberec temperature yesterday

Maximum temperature yesterday: 40 °F (at 2:00 PM)
Minimum temperature yesterday: 38 °F (at 8:00 AM)
Average temperature yesterday: 38 °F

Past Weeks' High & Low Weather Summary

 TemperatureHumidityPressure
High57 °F (Nov 12, 3:00 PM)100% (Nov 9, 12:00 AM)30.35 "Hg (Nov 9, 12:00 AM)
Low31 °F (Nov 9, 6:00 AM)65% (Nov 8, 1:00 PM)29.56 "Hg (Nov 16, 6:00 AM)
Average46 °F88%29.96 "Hg
* Reported Nov 8 3:00 AM — Nov 23 3:00 AM, Liberec, Weather by CustomWeather, © 2014

Note: Actual official high and low records may vary slightly from our data, if they occured in-between our weather recording intervals... More about our weather records

Advertising

Liberec weather history for previous 24 hours

 ConditionsComfort  
Time TempWeatherWind HumidityBarometerVisibility
3:00 AM
Nov 23
37 °FFog.6 mph85%30.33 "Hg6 mi
2:00 AM38 °FChilly.6 mph83%30.34 "Hg7 mi
1:00 AM38 °FFog.5 mph84%30.34 "Hg6 mi
12:00 AM38 °FChilly.3 mph82%30.33 "Hg7 mi
11:00 PM
Nov 22
38 °FChilly.3 mph81%30.33 "Hg8 mi
10:00 PM38 °FChilly.3 mph79%30.33 "Hg9 mi
9:00 PM38 °FOvercast.5 mph77%30.32 "Hg11 mi
8:00 PM38 °FOvercast.3 mph78%30.32 "Hg9 mi
7:00 PM38 °FOvercast.3 mph78%30.31 "Hg11 mi
6:00 PM38 °FOvercast.5 mph79%30.31 "Hg11 mi
5:00 PM39 °FChilly.5 mph78%30.31 "Hg9 mi
4:00 PM39 °FOvercast.5 mph75%30.30 "Hg12 mi
3:00 PM40 °FPartly sunny.5 mph73%30.29 "Hg17 mi
2:00 PM40 °FOvercast.5 mph71%30.29 "Hg17 mi
1:00 PM39 °FOvercast.5 mph71%30.29 "Hg19 mi
12:00 PM39 °FOvercast.6 mph72%30.31 "Hg19 mi
11:00 AM39 °FOvercast.3 mph76%30.32 "Hg19 mi
10:00 AM38 °FOvercast.5 mph77%30.32 "Hg17 mi
9:00 AM38 °FOvercast.5 mph77%30.31 "Hg17 mi
8:00 AM38 °FOvercast.5 mph79%30.30 "Hg14 mi
7:00 AM38 °FOvercast.2 mph78%30.29 "Hg14 mi
6:00 AM38 °FChilly.2 mph77%30.28 "Hg12 mi
5:00 AM38 °FChilly.2 mph77%30.28 "Hg12 mi
4:00 AM38 °FChilly.2 mph80%30.29 "Hg9 mi
Weather by CustomWeather, © 2014

See weather overviewHow to use our weather pages